This is the latest recevied weather packets stored in our database for station/object YC2UTR-2. If no packets are shown the sender has not sent any weather packets the latest 10 day(s).
| Time | Temp. | Humidity | Pressure | Rain* | Wind** | Luminosity | Snow |
|---|---|---|---|---|---|---|---|
| 1788583606 | 31.11° C | 48% | 1018.7 hPa | - | - | - | - |
| 1788583306 | 31.67° C | 46% | 1018.8 hPa | - | - | - | - |
| 1788583006 | 31.11° C | 47% | 1019 hPa | - | - | - | - |
| 1788582706 | 31.11° C | 47% | 1019 hPa | - | - | - | - |
| 1788582406 | 31.11° C | 47% | 1019 hPa | - | - | - | - |
| 1788582106 | 30.56° C | 48% | 1019.1 hPa | - | - | - | - |
| 1788581823 | 30.56° C | 50% | 1019.1 hPa | - | - | - | - |
| 1788581506 | 30.56° C | 50% | 1019.3 hPa | - | - | - | - |
| 1788581206 | 30.56° C | 49% | 1019.3 hPa | - | - | - | - |
| 1788580906 | 30.56° C | 48% | 1019.4 hPa | - | - | - | - |
| 1788580606 | 31.11° C | 50% | 1019.5 hPa | - | - | - | - |
| 1788580306 | 31.11° C | 50% | 1019.6 hPa | - | - | - | - |
| 1788580006 | 30° C | 52% | 1019.7 hPa | - | - | - | - |
| 1788579706 | 30.56° C | 51% | 1019.9 hPa | - | - | - | - |
| 1788579406 | 29.44° C | 53% | 1020 hPa | - | - | - | - |
| 1788579106 | 30° C | 53% | 1020.2 hPa | - | - | - | - |
| 1788578806 | 30° C | 53% | 1020.3 hPa | - | - | - | - |
| 1788578506 | 29.44° C | 55% | 1020.4 hPa | - | - | - | - |
| 1788578206 | 29.44° C | 55% | 1020.4 hPa | - | - | - | - |
| 1788577906 | 29.44° C | 58% | 1020.5 hPa | - | - | - | - |
| 1788577606 | 28.89° C | 59% | 1020.6 hPa | - | - | - | - |
| 1788577306 | 28.33° C | 61% | 1020.7 hPa | - | - | - | - |
| 1788577006 | 27.78° C | 62% | 1020.8 hPa | - | - | - | - |
| 1788576706 | 27.78° C | 62% | 1020.8 hPa | - | - | - | - |
| 1788576406 | 27.78° C | 64% | 1020.9 hPa | - | - | - | - |
* Rain since midnight (hover to see other rain measurements)
** Current wind speed in m/s (hover to see current wind gust speed)